{"data":{"norad_id":67561,"epoch":"2026-09-19T10:41:32.769888Z","epoch_age_seconds":163404,"freshness":"FRESH","line1":"1 67561U 26016A   26262.44551817  .00017249  00000+0  53462-3 0  9998","line2":"2 67561  97.2834 321.0412 0002545  92.4469 267.7066 15.33488679 36550","mean_motion":15.33488679,"eccentricity":0.0002545,"inclination_deg":97.2834,"raan_deg":321.0412,"arg_perigee_deg":92.4469,"mean_anomaly_deg":267.7066,"bstar":0.00053462,"rev_number":3655,"period_min":93.903529887096,"perigee_km":463.67153605875,"apogee_km":467.15490312052,"semimajor_km":6843.5502195896,"source":"CELESTRAK","updated_at":"2026-09-20T09:00:43.573289Z"}}